Location: Newark
(45.2500°N, 7.5833°E)
Time: 11:20:13
(UTC+00:00)

N. Korean satellite - Pass Details

Date: 15 December 2019
Orbit: 454 x 508 km, 97.2° (Epoch: 17 January)

Event Time Altitude Azimuth Distance (km) Brightness Sun altitude
Rises 05:59:59 0° 3° (N) 2,531 10.0 -10.4°
Reaches altitude 10° 06:02:11 10° 353° (N) 1,639 9.0 -10.1°
Maximum altitude 06:05:20 32° 289° (WNW) 826 7.2 -9.5°
Drops below altitude 10° 06:08:26 10° 225° (SW) 1,604 9.0 -9.1°
Sets 06:10:35 0° 215° (SW) 2,467 10.0 -8.7°
